Content
SEND FEEDBACK

Daily
Averages
Monthly
Summary
United States of America

YIGO, GUAM


Home > North America > United States > Guam
Elevation: 162 meters     Latitude: 13 32N     Longitude: 144 53E

WEATHER
 
SELECT A DAY
Number of Records: 206,799;   Date Range: 1/1/95 - 4/15/14
 
SHARE

PRINT THIS DATA

[ ← Previous Day ]
WEATHER ALMANAC - 1 FEBRUARY, 2013
[ Next Day → ]
[ °F ]   °C
Weather ElementAverageHighLow
Temperature25.8 °C28.9 °C (12:54 pm)23.9 °C (1:54 am)
Dewpoint19.3 °C21.1 °C (1:54 am)17.2 °C (11:54 pm)
Humidity67.5 %84 % (1:54 am)54 % (2:54 pm)
Barometer1016.6 hPa1018.6 hPa (8:54 am)1014.9 hPa (4:54 pm)
Wind Speed30.3 km/h40.7 km/h (12:54 pm)
Wind Gust55.5 km/h (12:54 pm)
Weather ElementAverage
Visibility16.1 km
Wind DirectionNE (41.3 °)

Weather ElementTotal
Precipitation---
Cooling Degree Days8.1 (Base 18.3)
Growing Degree Days16.4 (Base 10)
Averaged from 23 records on 1 February, 2013
WEATHER CONDITIONS BREAKOUT
WIND DIRECTION BREAKOUT
WEATHER BY HOUR - 1 FEBRUARY, 2013
[ °F ]   °C
Local TimeTemperatureDewpointHumidityBarometerVisibilityWind DirectionWind SpeedGust SpeedPrecipitationEventsConditions
1:54 AM23.9 °C21.1 °C84 %1016.6 hPa16.1 kmNNE (20°)33.3 km/h46.3 km/hMostly Cloudy
2:54 AM23.9 °C21.1 °C84 %1016.3 hPa16.1 kmNNE (30°)27.8 km/h42.6 km/hScattered Clouds
3:54 AM23.9 °C20.6 °C82 %1015.9 hPa16.1 kmNNE (20°)24.1 km/h38.9 km/hScattered Clouds
4:54 AM23.9 °C20 °C79 %1016.3 hPa16.1 kmNNE (30°)20.4 km/h35.2 km/hScattered Clouds
5:54 AM23.9 °C19.4 °C76 %1016.9 hPa16.1 kmNNE (30°)18.5 km/h31.5 km/hMostly Cloudy
6:54 AM23.9 °C18.9 °C73 %1017.3 hPa16.1 kmNE (40°)27.8 km/hMostly Cloudy
7:54 AM25 °C19.4 °C71 %1017.9 hPa16.1 kmNE (40°)25.9 km/hPartly Cloudy
8:54 AM26.1 °C19.4 °C66 %1018.6 hPa16.1 kmNE (40°)37 km/h44.4 km/hPartly Cloudy
9:54 AM27.2 °C19.4 °C62 %1018.6 hPa16.1 kmNNE (30°)37 km/h46.3 km/hScattered Clouds
10:54 AM28.3 °C18.9 °C56 %1018.3 hPa16.1 kmNE (40°)35.2 km/h46.3 km/hClear
11:54 AM27.8 °C18.9 °C58 %1017.6 hPa16.1 kmNE (50°)38.9 km/hScattered Clouds
12:54 PM28.9 °C20 °C58 %1016.6 hPa16.1 kmNNE (30°)40.7 km/h55.5 km/hPartly Cloudy
1:54 PM27.8 °C19.4 °C60 %1015.6 hPa16.1 kmNNE (30°)37 km/h50.1 km/hOvercast
2:54 PM28.3 °C18.3 °C54 %1015.2 hPa16.1 kmNE (40°)37 km/h46.3 km/hScattered Clouds
3:54 PM27.8 °C18.9 °C58 %1015.2 hPa16.1 kmNE (40°)37 km/h48.1 km/hMostly Cloudy
4:54 PM26.7 °C19.4 °C64 %1014.9 hPa16.1 kmNE (40°)33.3 km/h48.1 km/hMostly Cloudy
5:54 PM26.1 °C18.9 °C64 %1015.2 hPa16.1 kmNE (40°)31.5 km/h44.4 km/hScattered Clouds
6:54 PM25.6 °C19.4 °C68 %1015.6 hPa16.1 kmNE (50°)22.2 km/h38.9 km/hScattered Clouds
7:54 PM25 °C18.9 °C69 %1015.9 hPa16.1 kmENE (60°)25.9 km/hScattered Clouds
8:54 PM25 °C18.9 °C69 %1016.6 hPa16.1 kmENE (60°)20.4 km/h37 km/hScattered Clouds
9:54 PM25 °C18.9 °C69 %1016.9 hPa16.1 kmENE (60°)27.8 km/hScattered Clouds
10:54 PM25 °C17.8 °C64 %1016.9 hPa16.1 kmENE (70°)29.6 km/h38.9 km/hScattered Clouds
11:54 PM24.4 °C17.2 °C64 %1016.9 hPa16.1 kmENE (60°)25.9 km/hScattered Clouds
Hourly data recorded from PGUM, located 9.61 kilometers away from Yigo, Guam







STORIES FROM OUR PARTNERS